Waarnemingen

Advertentie
Mijn weer
Cannes, Frankrijk (7684): temperatuur & dauwpunt: 09.12.2017 18:00:00 - 15.12.2017 18:00:00 (CET)Cannes, Frankrijk (7684): temperatuur 5cm: 09.12.2017 18:00:00 - 15.12.2017 18:00:00 (CET)Cannes, Frankrijk (7684): windsnelheid & windstoten: 09.12.2017 18:00:00 - 15.12.2017 18:00:00 (CET)Cannes, Frankrijk (7684): windrichting: 09.12.2017 18:00:00 - 15.12.2017 18:00:00 (CET)Cannes, Frankrijk (7684): luchtdruk: 09.12.2017 18:00:00 - 15.12.2017 18:00:00 (CET)Cannes, Frankrijk (7684): zicht: 09.12.2017 18:00:00 - 15.12.2017 18:00:00 (CET)Cannes, Frankrijk (7684): Zonneschijnduur: 09.12.2017 18:00:00 - 15.12.2017 18:00:00 (CET)Cannes, Frankrijk (7684): neerslag: 09.12.2017 18:00:00 - 15.12.2017 18:00:00 (CET)
Datum & Tijd tt [°C] td [°C] tt 5cm [°C] ff [km/u] ff [kn] fx [km/u] fx [kn] dd ppp [hPa] vv [km] sd [min] rr [mm]
15.12.2017 18:00:00 11,1 -4,2 9,8 33 18 65 35 W 998,5 60 0 0,0
15.12.2017 17:00:00 11,9 -3,1 10,7 30 16 59 32 W 997,6 60 18 0,0
15.12.2017 16:00:00 13,3 -2,3 11,9 29 15 62 33 W 997,2 60 17 0,0
15.12.2017 15:00:00 12,4 -0,8 11,3 32 18 52 28 W 996,8 58 0 0,0
15.12.2017 14:00:00 11,5 0,9 11,4 26 14 43 23 WZW 997,8 57 0 0,0
15.12.2017 13:00:00 11,5 1,7 11,2 26 14 47 26 WZW 999,3 59 0 0,0
15.12.2017 12:00:00 12,7 1,7 12,6 16 8 24 13 WZW 1000,0 60 1 0,0
15.12.2017 11:00:00 13,0 2,5 12,0 14 8 34 18 W 1000,8 56 4 0,0
15.12.2017 10:00:00 12,0 5,6 10,3 26 14 50 27 WZW 1001,6 60 18 0,0
15.12.2017 09:00:00 10,9 5,2 9,8 30 16 53 29 W 1001,0 58 0 0,0
15.12.2017 08:00:00 11,2 4,6 10,1 22 12 41 22 WZW 1001,4 10 0 0,0
15.12.2017 07:00:00 12,5 4,2 11,1 24 13 52 28 W 1001,8 60 0 0,0
15.12.2017 06:00:00 12,3 5,9 10,9 19 11 38 20 W 1002,5 60 0 0,0
15.12.2017 05:00:00 12,4 6,7 11,1 18 10 42 23 WZW 1003,2 60 0 0,0
15.12.2017 04:00:00 12,6 6,4 11,2 18 10 37 20 W 1004,3 10 0 0,0
15.12.2017 03:00:00 12,7 6,7 10,8 15 8 42 23 W 1004,8 10 0 0,0
15.12.2017 02:00:00 12,4 7,1 9,7 18 10 32 18 WZW 1005,1 10 0 0,0
15.12.2017 01:00:00 11,7 7,4 8,7 18 10 31 17 WZW 1006,1 10 0 0,0
15.12.2017 00:00:00 11,9 7,4 9,0 13 7 31 17 WZW 1007,1 10 0 0,2
14.12.2017 23:00:00 12,0 6,9 10,0 15 8 29 16 WZW 1007,7 10 0 0,0
14.12.2017 22:00:00 11,7 6,8 9,2 19 10 32 17 WZW 1008,4 60 0 0,0
14.12.2017 21:00:00 12,0 6,3 10,7 15 8 37 20 WZW 1009,1 60 0 0,0
14.12.2017 20:00:00 12,4 5,8 10,5 20 11 35 19 WZW 1008,8 60 0 0,0
14.12.2017 19:00:00 12,3 4,5 11,0 19 11 40 22 WZW 1008,9 60 0 0,0
14.12.2017 18:00:00 12,6 4,0 11,3 23 12 40 22 WZW 1008,4 60 0 0,0
14.12.2017 17:00:00 13,5 3,3 11,8 20 11 40 22 WZW 1008,2 60 26 0,0
14.12.2017 16:00:00 15,3 0,7 15,2 21 11 49 26 W 1008,0 10 60 0,0
14.12.2017 15:00:00 16,5 1,7 17,3 26 14 55 30 W 1007,7 42 60 0,0
14.12.2017 14:00:00 16,1 5,7 16,5 22 12 41 22 WZW 1007,8 10 60 0,0
14.12.2017 13:00:00 17,0 5,0 15,0 25 14 58 31 W 1008,4 55 60 0,0
14.12.2017 12:00:00 15,2 5,1 14,4 32 17 54 29 W 1009,3 60 50 0,0
14.12.2017 11:00:00 15,2 4,3 13,5 31 17 55 30 W 1010,0 10 3 0,0
14.12.2017 10:00:00 14,1 4,7 12,3 31 17 57 31 W 1010,0 58 0 0,0
14.12.2017 09:00:00 13,2 5,4 12,4 29 16 60 32 W 1010,0 10 0 0,0
14.12.2017 08:00:00 13,2 5,1 11,7 34 18 56 30 W 1009,6 10 0 0,0
14.12.2017 07:00:00 13,1 5,0 12,1 31 17 64 35 W 1009,8 60 0 0,0
14.12.2017 06:00:00 13,0 4,9 12,0 35 19 64 35 W 1009,2 10 0 0,0
14.12.2017 05:00:00 12,6 5,0 11,5 35 19 74 40 W 1009,7 10 0 0,0
14.12.2017 04:00:00 12,3 4,8 10,5 34 18 66 36 W 1011,2 10 0 0,0
14.12.2017 03:00:00 11,4 4,6 8,6 24 13 57 31 - 1012,2 10 0 0,0
14.12.2017 02:00:00 9,6 3,3 8,7 15 8 43 23 ZW 1012,7 60 0 0,0
14.12.2017 01:00:00 10,8 3,1 8,0 16 9 38 21 WZW 1013,8 60 0 0,0
14.12.2017 00:00:00 9,6 1,5 8,1 18 10 35 19 ZW 1014,9 10 0 0,0
13.12.2017 23:00:00 9,5 0,1 8,3 17 9 42 23 WZW 1015,3 60 0 0,0
13.12.2017 22:00:00 11,1 -0,7 7,9 22 12 41 22 W 1015,1 60 0 0,0
13.12.2017 21:00:00 8,9 -1,3 7,6 15 8 42 23 ZW 1015,7 60 0 0,0
13.12.2017 20:00:00 9,0 -1,2 7,8 24 13 41 22 WZW 1015,6 60 0 0,0
13.12.2017 19:00:00 10,2 -2,5 7,5 22 12 48 26 WZW 1015,5 60 0 0,0
13.12.2017 18:00:00 9,3 -2,3 7,2 7 4 45 24 W 1015,9 60 0 0,0
13.12.2017 17:00:00 10,0 -2,3 8,9 34 18 54 29 WZW 1016,2 10 20 0,0
13.12.2017 16:00:00 10,7 -2,4 9,6 34 18 61 33 WZW 1016,1 10 52 0,0
13.12.2017 15:00:00 12,7 -3,6 14,1 15 8 29 16 - 1016,0 10 60 0,0
13.12.2017 14:00:00 12,8 -2,7 13,5 13 7 21 11 ZZW 1016,6 53 54 0,0
13.12.2017 13:00:00 13,1 -0,2 14,1 2 1 7 4 NNO 1017,1 45 60 0,0
13.12.2017 12:00:00 10,9 -2,2 14,5 2 1 9 5 ONO 1018,1 46 60 0,0
13.12.2017 11:00:00 8,7 -2,0 10,8 4 2 13 7 NO 1018,5 51 60 0,0
13.12.2017 10:00:00 5,6 -1,3 4,1 6 4 19 10 N 1018,2 56 60 0,2
13.12.2017 09:00:00 2,1 -1,7 -1,3 5 3 14 8 N 1017,9 48 37 0,0
13.12.2017 08:00:00 0,9 -1,8 -1,4 6 3 16 9 N 1017,4 58 0 0,0
13.12.2017 07:00:00 0,9 -1,5 -1,7 7 4 12 7 N 1016,9 60 0 0,0
13.12.2017 06:00:00 1,3 -1,1 -1,4 6 3 15 8 N 1016,0 60 0 0,0
13.12.2017 05:00:00 1,5 -0,4 -3,5 9 5 13 7 NNO 1015,8 10 0 0,0
13.12.2017 04:00:00 -0,3 -2,8 -3,7 4 2 10 5 - 1016,0 10 0 0,0
13.12.2017 03:00:00 1,2 0,6 -3,9 4 2 6 4 NNW 1015,7 36 0 0,0
13.12.2017 02:00:00 2,1 0,9 -2,1 5 3 8 4 N 1015,3 35 0 0,0
13.12.2017 01:00:00 2,9 1,6 -1,0 2 1 9 5 NNW 1015,1 29 0 0,0
13.12.2017 00:00:00 4,1 2,4 -0,6 5 3 7 4 NNO 1015,0 35 0 0,0
12.12.2017 23:00:00 4,0 2,5 0,2 4 2 9 5 N 1014,5 25 0 0,0
12.12.2017 22:00:00 4,8 3,6 0,0 6 3 8 4 N 1014,2 20 0 0,0
12.12.2017 21:00:00 5,6 3,3 1,3 3 2 6 3 N 1013,9 28 0 0,0
12.12.2017 20:00:00 7,5 3,5 4,0 0 0 18 10 N 1013,3 10 0 0,0
12.12.2017 19:00:00 9,5 3,5 8,1 10 6 21 12 Z 1013,0 60 0 0,0
12.12.2017 18:00:00 10,6 3,1 9,2 13 7 35 19 W 1012,3 10 0 0,0
12.12.2017 17:00:00 11,0 4,0 9,0 18 10 34 18 W 1011,9 60 1 0,0
12.12.2017 16:00:00 12,5 4,9 11,8 2 1 28 15 N 1011,5 59 33 0,0
12.12.2017 15:00:00 11,7 4,7 11,7 18 10 30 16 WZW 1010,9 60 7 0,0
12.12.2017 14:00:00 11,3 4,5 11,1 14 8 39 21 WZW 1010,3 56 5 0,0
12.12.2017 13:00:00 11,9 4,1 12,6 23 13 39 21 WZW 1010,2 56 26 0,0
12.12.2017 12:00:00 12,6 4,0 11,9 4 2 16 8 W 1010,4 52 38 0,0
12.12.2017 11:00:00 8,7 4,9 8,5 4 2 8 4 N 1010,5 55 0 0,0
12.12.2017 10:00:00 6,7 4,0 5,8 2 1 7 4 N 1010,3 53 0 0,0
12.12.2017 09:00:00 5,5 4,0 3,3 4 2 10 5 NNO 1009,1 34 0 0,0
12.12.2017 08:00:00 5,0 3,8 3,5 4 2 15 8 - 1008,3 10 0 0,0
12.12.2017 07:00:00 4,9 3,6 3,1 8 4 14 8 N 1007,1 60 0 0,0
12.12.2017 06:00:00 6,5 3,5 3,6 5 3 23 12 N 1005,6 60 0 0,0
12.12.2017 05:00:00 8,7 3,9 7,5 21 12 39 21 WZW 1004,6 60 0 0,0
12.12.2017 04:00:00 9,1 3,5 7,1 21 11 32 18 WZW 1004,1 60 0 0,0
12.12.2017 03:00:00 9,6 3,1 8,0 17 9 50 27 WZW 1003,2 60 0 0,0
12.12.2017 02:00:00 9,4 3,8 7,9 26 14 46 25 WZW 1001,8 60 0 0,0
12.12.2017 01:00:00 9,5 4,3 8,1 21 12 44 24 W 1000,5 60 0 0,0
12.12.2017 00:00:00 9,1 5,6 8,2 28 15 46 25 WZW 999,3 60 0 0,0
11.12.2017 23:00:00 10,0 6,5 9,1 23 12 46 25 W 997,8 60 0 0,0
11.12.2017 22:00:00 10,9 7,6 10,2 22 12 37 20 WZW 996,2 60 0 0,0
11.12.2017 21:00:00 12,9 9,7 11,4 16 9 34 18 WZW 994,8 10 0 0,0
11.12.2017 20:00:00 13,7 12,1 12,6 9 5 20 11 ZW 993,4 10 0 0,8
11.12.2017 19:00:00 14,7 12,7 13,4 16 9 57 31 ZZW 992,4 10 0 2,0
11.12.2017 18:00:00 15,0 13,2 13,8 34 18 73 40 ZZW 991,9 6 0 3,9
11.12.2017 17:00:00 15,5 13,2 14,2 37 20 93 50 ZZW 991,6 10 0 0,6
11.12.2017 16:00:00 15,7 13,4 14,0 41 22 75 41 ZZW 991,1 9 0 2,8
11.12.2017 15:00:00 15,0 13,4 14,0 29 16 66 36 ZZW 991,5 7 0 5,7
11.12.2017 14:00:00 15,5 13,0 13,8 35 19 76 41 ZZW 991,8 5 0 4,4
11.12.2017 13:00:00 14,8 13,5 13,0 37 20 69 37 Z 992,1 4,5 0 2,6
11.12.2017 12:00:00 14,6 12,1 13,2 39 21 77 42 ZZW 993,1 7 0 3,0
11.12.2017 11:00:00 14,6 13,3 13,2 37 20 76 41 Z 993,7 4,7 0 3,7
11.12.2017 10:00:00 14,9 12,2 13,1 34 18 68 37 Z 994,1 6 0 2,8
11.12.2017 09:00:00 14,7 13,2 13,4 36 19 56 30 Z 994,0 4,0 0 3,0
11.12.2017 08:00:00 14,8 12,7 13,3 31 17 58 32 Z 994,0 7 0 1,6
11.12.2017 07:00:00 14,8 13,0 13,1 29 16 50 27 Z 994,4 8 0 1,5
11.12.2017 06:00:00 14,8 12,3 10,2 26 14 43 23 Z 995,2 10 0 0,8
11.12.2017 05:00:00 10,4 9,9 9,4 5 3 22 12 NNO 995,8 10 0 1,0
11.12.2017 04:00:00 9,5 9,2 8,5 8 4 27 15 NO 997,2 8 0 1,6
11.12.2017 03:00:00 8,6 8,3 8,3 8 5 13 7 N 998,7 3,7 0 2,4
11.12.2017 02:00:00 8,4 8,1 8,1 5 3 10 6 NNO 999,3 2,7 0 1,8
11.12.2017 01:00:00 8,2 7,9 7,6 5 3 13 7 NNO 1000,2 5 0 0,6
11.12.2017 00:00:00 7,7 7,3 7,3 5 3 14 8 NNO 1000,8 3,9 0 1,8
10.12.2017 23:00:00 7,4 7,1 6,6 6 3 14 8 N 1001,2 3,5 0 2,7
10.12.2017 22:00:00 6,6 6,3 6,3 6 3 10 6 N 1001,8 1,4 0 4,2
10.12.2017 21:00:00 6,2 5,9 6,0 0 0 13 7 N 1002,6 1,8 0 2,6
10.12.2017 20:00:00 5,9 5,6 5,7 4 2 10 5 - 1002,8 4,6 0 2,6
10.12.2017 19:00:00 5,7 5,4 5,5 5 3 8 5 - 1003,5 4,3 0 1,7
10.12.2017 18:00:00 5,5 5,1 5,3 4 2 11 6 N 1003,9 3,5 0 1,4
10.12.2017 17:00:00 5,2 4,8 5,2 6 3 13 7 N 1004,7 3,0 0 2,0
10.12.2017 16:00:00 5,1 4,7 5,1 4 2 8 4 N 1005,7 3,2 0 2,4
10.12.2017 15:00:00 4,9 4,5 5,0 4 2 11 6 NW 1006,4 5 0 1,6
10.12.2017 14:00:00 4,6 4,2 4,5 6 3 11 6 N 1007,4 4,9 0 1,6
10.12.2017 13:00:00 3,9 3,5 4,1 4 2 10 5 - 1008,8 6 0 2,0
10.12.2017 12:00:00 3,4 3,0 3,3 3 1 9 5 N 1009,8 6 0 2,1
10.12.2017 11:00:00 2,6 2,2 2,0 3 2 14 7 N 1011,3 5 0 2,2
10.12.2017 10:00:00 1,7 1,1 1,4 7 4 17 9 N 1012,4 2,4 0 1,4
10.12.2017 09:00:00 1,2 0,3 0,9 5 3 11 6 N 1013,4 5 0 0,8
10.12.2017 08:00:00 2,3 -5,4 1,0 4 2 9 5 - 1014,2 10 0 0,0
10.12.2017 07:00:00 2,3 -7,9 1,5 3 2 5 3 N 1014,1 60 0 0,0
10.12.2017 06:00:00 1,8 -8,6 -1,7 5 3 14 7 N 1014,5 60 0 0,0
10.12.2017 05:00:00 -0,3 -8,5 -4,7 0 0 6 3 N 1014,6 60 0 0,0
10.12.2017 04:00:00 0,5 -9,3 -2,7 4 2 14 7 - 1015,7 10 0 0,0
10.12.2017 03:00:00 0,8 -9,8 -2,0 6 3 18 10 N 1016,1 60 0 0,0
10.12.2017 02:00:00 0,8 -9,5 -1,8 5 3 16 8 - 1016,4 10 0 0,0
10.12.2017 01:00:00 1,1 -9,3 -1,9 9 5 16 9 N 1017,1 10 0 0,0
10.12.2017 00:00:00 1,4 -9,5 -1,3 5 3 12 7 - 1017,5 10 0 0,0
09.12.2017 23:00:00 0,8 -8,7 -1,1 8 5 15 8 N 1017,6 51 0 0,0
09.12.2017 22:00:00 1,8 -9,5 -1,7 7 4 17 9 N 1017,4 60 0 0,0
09.12.2017 21:00:00 1,7 -9,3 -1,3 8 4 13 7 N 1017,7 10 0 0,0
09.12.2017 20:00:00 2,3 -9,0 -0,8 8 4 17 9 N 1017,2 10 0 0,0
09.12.2017 19:00:00 2,9 -8,8 -0,5 4 2 13 7 NW 1016,8 35 0 0,0
09.12.2017 18:00:00 5,9 -10,4 0,3 4 2 7 4 - 1016,1 10 0 0,0

tt = temperatuur
td = dauwpunt
tt 5cm = temperatuur 5cm
ff = windsnelheid
fx = windstoten
dd = windrichting
ppp = luchtdruk
vv = zicht
sd = Zonneschijnduur
rr = neerslag

Weerstations in de omgeving